Location: Austin
(30.3000°N, 97.7500°W)
Time: 12:21:37
(UTC-05:00)

PSLV R/B - Pass Details

Date: 08 April 2026
Orbit: 559 x 586 km, 98.0° (Epoch: 11 April)

Event Time Altitude Azimuth Distance (km) Brightness Sun altitude
Rises 20:12:44 0° 153° (SSE) 2,735 6.5 -4.7°
Reaches altitude 10° 20:14:55 10° 147° (SSE) 1,845 5.6 -5.2°
Maximum altitude 20:18:43 44° 75° (ENE) 785 3.7 -6.0°
Drops below altitude 10° 20:22:34 10° 3° (N) 1,868 6.2 -6.8°
Sets 20:24:47 0° 356° (N) 2,773 7.1 -7.3°
